Capitol Logistics 3261


KTPA
Tampa International Airport
Tampa, Florida, US
KMIA
Miami International Airport
Miami, Florida, US

Activity Log

Date Flight Route Aircraft Duration
04/08/2020 CPX3261 GANDY8 SABEE CYY CYY9 SF34 1h 33m
11/19/2019 CPX3261 GANDY8 SABEE CYY CYY9 SF34 1h 04m
11/03/2019 CPX661 GANDY8 SABEE CYY CYY9 SF34 1h 26m

Route Details

Aircraft Information
Primary: Saab 340AF
Backup: Not Available
Route Data
Distance: 177nm
Sched. Duration: 1h 25m
Avg. Duration: 1h 20m (-4m)
Times Flown: 3
Recm'd Route: GANDY8 SABEE CYY CYY9
Planned Altitude: 17,000ft
Origin Wx: KTPA 251053Z VRB03KT 10SM SCT120 24/21 A2987 RMK AO2 SLP115 T02390206
Dest. Wx: KMIA 251053Z 00000KT 10SM FEW020 SCT055 BKN090 OVC130 24/24 A2987 RMK AO2 RAE47 SLP115 P0000 T02440239 $
Notes:

Financial History
Total Freight: 14,280lbs
Average Load: 4,760lbs/flt
Fuel Used: 2,965lbs
Avg. Fuel Used: 988lbs/flt
Fuel Expense: $2,995
Avg. Fuel Expense: $998
Avg. Fuel Cost: $1.01/lbs
Total Gross Income: $16,919
Pilot Pay: $697
Total Expenses: $1,983
Total Revenue: $10,989
Average Revenue: $5,639.75